Location: Tafessasset
(32.5899°N, 5.4824°W)
Time: 06:03:26
(UTC+00:00)

Delta 168 - Pass Details

Date: 18 February 2020
Orbit: 394 x 2051 km, 25.3° (Epoch: 07 April)

Event Time Altitude Azimuth Distance (km) Brightness Sun altitude
Exits shadow 05:24:55 27° 209° (SSW) 1,284 4.4 -21.2°
Maximum altitude 05:26:11 31° 180° (S) 1,098 4.3 -20.9°
Drops below altitude 10° 05:29:43 10° 116° (ESE) 1,742 6.3 -20.2°
Sets 05:31:46 0° 105° (ESE) 2,491 7.6 -19.8°
